Home > Weather > Osorno > Past weeks

Flag for Chile Past Weather in Osorno, Chile — Yesterday and Last 2 Weeks

Now
48 °F

Passing clouds.


Feels Like: 44 °F
Forecast: 42 / 54 °F
Wind: 9 mph from Northeast

Location: Puerto Montt Airport

Current Time: Jul 31, 2016 at 5:48:57 AM

Latest Report: Jul 31, 2016 at 4:00 AM


Visibility: N/A

Pressure: 29.98 "Hg

Humidity: 87%

Dew Point: 45 °F

Location of OsornoLocation

Past Weather in Osorno — Graph

°F

Osorno Temperature Yesterday

Maximum temperature yesterday: 52 °F (at 1:00 PM)
Minimum temperature yesterday: 46 °F (at 12:00 AM)
Average temperature yesterday: 48 °F

High & Low Weather Summary for the Past Weeks

 TemperatureHumidityPressure
High55 °F (Jul 18, 2:00 PM)100% (Jul 16, 6:00 AM)30.39 "Hg (Jul 16, 6:00 AM)
Low28 °F (Jul 23, 8:00 AM)54% (Jul 16, 8:00 PM)29.77 "Hg (Jul 28, 9:00 AM)
Average44 °F87%30.02 "Hg
* Reported Jul 16 4:00 AM — Jul 31 4:00 AM, Osorno, Weather by CustomWeather, © 2016

Note: Actual official high and low records may vary slightly from our data, if they occured in-between our weather recording intervals... More about our weather records

Advertising

Osorno Weather History for the Previous 24 Hours

Scroll right to see more
 ConditionsComfort  
Time TempWeatherWind HumidityBarometerVisibility
4:00 AM
Sun, Jul 31
48 °FPassing clouds.9 mph87%29.98 "HgN/A
3:00 AM46 °FPassing clouds.6 mph93%29.98 "HgN/A
2:00 AM46 °FPassing clouds.6 mph93%29.98 "HgN/A
1:00 AM48 °FPassing clouds.8 mph87%29.98 "HgN/A
12:00 AM48 °FPassing clouds.8 mph94%30.01 "HgN/A
11:00 PM
Sat, Jul 30
46 °FPassing clouds.7 mph93%29.98 "HgN/A
10:00 PM46 °FPassing clouds.5 mph87%29.98 "Hg5 mi
9:00 PM46 °FPassing clouds.5 mph93%29.98 "HgN/A
8:00 PM46 °FPassing clouds.7 mph93%29.98 "HgN/A
7:00 PM48 °FPassing clouds.8 mph87%29.95 "HgN/A
6:00 PM48 °FPassing clouds.6 mph94%29.95 "HgN/A
5:00 PM48 °FPartly cloudy.8 mph94%29.95 "HgN/A
4:00 PM48 °FSprinkles. Broken clouds.9 mph87%29.92 "HgN/A
3:00 PM50 °FSprinkles. Partly sunny.8 mph94%29.92 "HgN/A
2:00 PM52 °FBroken clouds.14 mph88%29.92 "HgN/A
1:00 PM52 °FBroken clouds.15 mph88%29.92 "HgN/A
12:00 PM50 °FSprinkles. Partly sunny.12 mph88%29.92 "HgN/A
11:00 AM48 °FSprinkles. Partly sunny.14 mph94%29.92 "HgN/A
10:00 AM48 °FBroken clouds.13 mph87%29.92 "HgN/A
8:00 AM46 °FSprinkles. Cloudy.14 mph93%29.89 "HgN/A
7:00 AM46 °FSprinkles. Partly cloudy.10 mph93%29.86 "Hg3 mi
6:00 AM46 °FSprinkles. Passing clouds.10 mph93%29.86 "HgN/A
5:00 AM46 °FPassing clouds.12 mph93%29.86 "HgN/A
Weather by CustomWeather, © 2016

See weather overviewHow to use our weather pages